Regional Weather Roundup
Issued by NWS Cleveland, OH

Home | Current Version | Previous Version | Graphics & Text | Print | Product List | Glossary On
Versions: 1 2 3 4 5 6 7 8 9 10 11 12 13 14 15 16 17 18 19 20 21 22 23 24 25 26 27 28 29 30 31 32 33 34 35 36 37 38 39 40 41 42 43 44 45 46 47 48 49 50
000
ASUS41 KCLE 231510
RWRCLE
OHIO REGIONAL WEATHER ROUNDUP
NATIONAL WEATHER SERVICE WILMINGTON, OH
1100 AM EDT WED APR 23 2014

NOTE: "FAIR" INDICATES FEW OR NO CLOUDS BELOW 12,000 FEET WITH NO
SIGNIFICANT WEATHER AND/OR OBSTRUCTIONS TO VISIBILITY.

OHZ001>008-015>018-024>027-034-035-043-044-231600-
   NORTHWEST OHIO

CITY           SKY/WX    TMP DP  RH WIND       PRES   REMARKS
DEFIANCE       SUNNY     45  30  55 N7G18     30.11R
FINDLAY        PTSUNNY   44  30  57 N10       30.09R
TOLEDO EXPRESS MOSUNNY   44  29  55 NW15      30.11R
TOLEDO METCALF PTSUNNY   44  30  57 N10       30.11R
LIMA           MOSUNNY   44  32  62 N12       30.10R
$$

OHZ009>014-019>023-028>033-038-089-231600-
   NORTHEAST OHIO

CITY           SKY/WX    TMP DP  RH WIND       PRES   REMARKS
CLE-HOPKINS    CLOUDY    41  30  65 NW13      30.09R
CLE-LAKEFRONT  CLOUDY    39  32  76 NW15      30.05R
CUY CO. ARPT   CLOUDY    37  32  81 N14       30.05R
LORAIN-ELYRIA  CLOUDY    42  32  67 N16       30.07R
ASHTABULA      CLOUDY    36  29  75 NW16G24   30.02R
AKRON-CANTON   CLOUDY    42  32  67 NW13      30.03R
WOOSTER        CLOUDY    39  32  76 NW16      30.06R
MANSFIELD      CLOUDY    40  31  70 NW12      30.06R
YOUNGSTOWN     CLOUDY    37  30  75 NW12G22   29.99R
$$

OHZ042-051>053-060>062-070>072-077>081-231600-
  SOUTHWEST OHIO

CITY           SKY/WX    TMP DP  RH WIND       PRES   REMARKS
CINC-COVINGTON SUNNY     48  31  51 VRB5      30.10R
CINC-LUNKEN    SUNNY     48  32  53 N9        30.12R
HAMILTON       SUNNY     50  33  52 N8        30.12S
DAYTON         MOSUNNY   46  31  55 N5        30.11R
WRIGHT-PAT AFB SUNNY     44  32  62 NW5       30.10R
DAYTON GENERAL SUNNY     46  32  58 NW6       30.09R
WILMINGTON     SUNNY     46  30  53 N6        30.08R
$$

OHZ036-037-039>041-045>050-054>059-063>069-073>076-082>088-231600-
  CENTRAL AND SOUTHEAST OHIO

CITY           SKY/WX    TMP DP  RH WIND       PRES   REMARKS
COLUMBUS       MOSUNNY   46  31  55 VRB6      30.08R
OSU AIRPORT    MOSUNNY   45  32  60 N8        30.07R
BOLTON FIELD   MOSUNNY   45  34  65 NW6       30.08R
RICKENBACK AFB SUNNY     48  30  48 N9        30.07R
NEWARK         CLOUDY    44  31  60 N8        30.06R
MARION         CLOUDY    41  30  65 N10       30.09R
LANCASTER      PTSUNNY   49  33  54 N12       30.07R
ZANESVILLE     CLOUDY    45  31  58 NW9       30.05R
NEW PHILLY     CLOUDY    42  31  64 NW10      30.05R
$$



USA.gov is the U.S. government's official web portal to all federal, state and local government web resources and services.